Brisbane, Australia

12:14 AM AEST on February 23, 2017 (GMT +1000)
Brisbane International

Weather History for YBBN - March, 2014

Change the Weather History Date:

Friday, March 28, 2014

  Actual Average Record
Temperature  
Mean Temperature 76 °F -  
Max Temperature 82 °F 79 °F 86 °F (1998)
Min Temperature 69 °F 63 °F 60 °F (2005)
Cooling Degree Days 10    
Growing Degree Days 26 (Base 50)    
Moisture  
Dew Point 72 °F    
Average Humidity 90    
Maximum Humidity 100    
Minimum Humidity 70    
Precipitation  
Precipitation 0.03 in 0.14 in - ()
Sea Level Pressure  
Sea Level Pressure 29.95 in    
Wind  
Wind Speed 13 mph ()    
Max Wind Speed 24 mph    
Max Gust Speed 25 mph    
Visibility 5.8 miles    
Events Rain    
Averages and records for this station are not official NWS values.
T = Trace of Precipitation, MM = Missing Value Source: Averaged Metar Reports

Daily Weather History Graph

Daily Weather History Graph

Search for Another Location

Airport or City:

Trip Planner

Search our weather history database for the weather conditions in past years. The results will help you decide how hot, cold, wet, or windy it might be!

Date:

Astronomy

Mar. 28, 2014 Rise Set
Actual Time 5:54 AM AEST 5:50 PM AEST
Civil Twilight 5:31 AM AEST 6:13 PM AEST
Nautical Twilight 5:04 AM AEST 6:40 PM AEST
Astronomical Twilight 4:37 AM AEST 7:07 PM AEST
Moon 2:55 AM AEST (3/28) 3:52 PM AEST (3/28)
Length of Visible Light 12h 41m
Length of Day
11h 55m
Waning Crescent, 10% of the Moon is Illuminated
Mar 28
Waning Crescent
Mar 31
New
Apr 7
First Quarter
Apr 15
Full
Apr 22
Last Quarter

Hourly Weather History & Observations

Time (AEST) Temp. Heat Index Dew Point Humidity Pressure Visibility Wind Dir Wind Speed Gust Speed Precip Events Conditions
12:00 AM 73 °F - 72 °F 95% 29.99 in 2 mi NE 19.6 mph - - Rain Heavy Rain
12:00 AM 73.4 °F - 71.6 °F 94% 29.98 in 1.9 mi NE 19.6 mph - N/A Rain Heavy Rain
12:30 AM 73.4 °F - 71.6 °F 94% 29.98 in 2.5 mi NE 18.4 mph - N/A Rain Rain
1:00 AM 73 °F - 72 °F 95% 29.98 in - NE 15.0 mph - -  
1:00 AM 73.4 °F - 71.6 °F 94% 29.98 in 2.5 mi NE 15.0 mph - N/A Rain Rain
1:08 AM 73.4 °F - 71.6 °F 94% 29.98 in 3.1 mi NNE 17.3 mph - N/A Rain Light Rain
1:20 AM 73.4 °F - 71.6 °F 94% 29.95 in 1.9 mi NE 13.8 mph - N/A Rain Heavy Rain
1:30 AM 73.4 °F - 71.6 °F 94% 29.95 in 1.9 mi NNE 13.8 mph 25.3 mph N/A Rain Heavy Rain
1:53 AM 73.4 °F - 71.6 °F 94% 29.95 in 3.1 mi NNE 19.6 mph - N/A Rain Light Rain
2:00 AM 73.4 °F - 71.6 °F 94% 29.95 in 3.1 mi NNE 21.9 mph - N/A Rain Light Rain
2:16 AM 73.4 °F - 71.6 °F 94% 29.95 in 5.6 mi NNE 21.9 mph - N/A Rain Light Rain
2:30 AM 73.4 °F - 71.6 °F 94% 29.92 in 5.6 mi NNE 21.9 mph - N/A Rain Light Rain
2:42 AM 73.4 °F - 71.6 °F 94% 29.92 in - NE 24.2 mph - N/A   Unknown
3:00 AM 73 °F - 71 °F 92% 29.93 in 9 mi NNE 21.9 mph - - Rain Light Rain
3:00 AM 73.4 °F - 71.6 °F 94% 29.92 in 6.2 mi NNE 21.9 mph - N/A Rain Light Rain
3:30 AM 73.4 °F - 71.6 °F 94% 29.92 in 6.2 mi NNE 19.6 mph - N/A   Mostly Cloudy
4:00 AM 73 °F - 72 °F 95% 29.94 in - NE 13.8 mph - -  
4:00 AM 73.4 °F - 71.6 °F 94% 29.92 in 6.2 mi NE 13.8 mph - N/A   Mostly Cloudy
4:30 AM 73.4 °F - 71.6 °F 94% 29.92 in 6.2 mi NE 8.1 mph - N/A   Mostly Cloudy
5:00 AM 73.4 °F - 71.6 °F 94% 29.92 in 5.6 mi NNE 6.9 mph - N/A   Light Drizzle
5:08 AM 73.4 °F - 71.6 °F 94% 29.95 in 2.2 mi NNE 6.9 mph - N/A   Light Drizzle
5:30 AM 73.4 °F - 71.6 °F 94% 29.95 in 3.1 mi NNE 6.9 mph - N/A Rain Light Rain
5:45 AM 73.4 °F - 71.6 °F 94% 29.95 in 4.3 mi North 8.1 mph - N/A Rain Light Rain
6:00 AM 73 °F - 71 °F 91% 29.96 in 6 mi North 9.2 mph - - Rain Light Rain
6:00 AM 73.4 °F - 71.6 °F 94% 29.95 in 5.6 mi North 9.2 mph - N/A   Mostly Cloudy
6:30 AM 73.4 °F - 71.6 °F 94% 29.95 in 6.2 mi North 8.1 mph - N/A   Mostly Cloudy
7:00 AM 73 °F - 72 °F 95% 29.97 in - WNW 5.8 mph - -  
7:00 AM 73.4 °F - 71.6 °F 94% 29.95 in 6.2 mi WNW 5.8 mph - N/A   Mostly Cloudy
7:30 AM 71.6 °F - 69.8 °F 94% 29.98 in 6.2 mi SSW 8.1 mph - N/A   Mostly Cloudy
8:00 AM 71.6 °F - 69.8 °F 94% 29.98 in 6.2 mi SSW 8.1 mph - N/A   Mostly Cloudy
8:30 AM 69.8 °F - 68.0 °F 94% 30.01 in 6.2 mi SW 8.1 mph - N/A   Mostly Cloudy
9:00 AM 70 °F - 69 °F 95% 30.01 in 3 mi SSW 8.1 mph - - Rain Light Drizzle
9:00 AM 69.8 °F - 69.8 °F 100% 30.01 in 3.1 mi SSW 8.1 mph - N/A   Light Drizzle
9:30 AM 71.6 °F - 69.8 °F 94% 30.01 in 5.0 mi SSW 5.8 mph - N/A   Light Drizzle
10:00 AM 74 °F - 71 °F 89% 30.01 in - WSW 5.8 mph - -  
10:00 AM 73.4 °F - 71.6 °F 94% 30.01 in 6.2 mi WSW 5.8 mph - N/A   Mostly Cloudy
10:30 AM 75.2 °F - 71.6 °F 89% 29.98 in 6.2 mi North 6.9 mph - N/A   Mostly Cloudy
11:00 AM 77.0 °F - 73.4 °F 89% 29.98 in 6.2 mi NNE 11.5 mph - N/A   Mostly Cloudy
11:30 AM 78.8 °F - 73.4 °F 83% 29.95 in 6.2 mi North 12.7 mph - N/A   Mostly Cloudy
12:00 PM 78 °F - 73 °F 82% 29.96 in 19 mi North 12.7 mph - -   Mostly Cloudy
12:00 PM 78.8 °F - 73.4 °F 83% 29.95 in 6.2 mi North 12.7 mph - N/A   Mostly Cloudy
12:30 PM 78.8 °F - 73.4 °F 83% 29.92 in 6.2 mi NNE 13.8 mph - N/A   Mostly Cloudy
1:00 PM 80 °F - 72 °F 70% 29.92 in - NNE 13.8 mph - -  
1:00 PM 78.8 °F - 71.6 °F 78% 29.92 in 6.2 mi NNE 13.8 mph - N/A   Scattered Clouds
1:30 PM 78.8 °F - 71.6 °F 78% 29.89 in 6.2 mi NNE 11.5 mph - N/A   Scattered Clouds
2:00 PM 82.4 °F 87.2 °F 71.6 °F 70% 29.89 in 6.2 mi NNE 10.4 mph - N/A   Scattered Clouds
2:30 PM 78.8 °F - 69.8 °F 74% 29.89 in 6.2 mi NE 8.1 mph - N/A   Scattered Clouds
3:00 PM 77 °F - 72 °F 81% 29.90 in 6 mi NNW 8.1 mph - - Rain Light Rain Showers
3:00 PM 77.0 °F - 71.6 °F 83% 29.89 in 5.6 mi NNW 8.1 mph - N/A Rain Light Rain Showers
3:30 PM 77.0 °F - 73.4 °F 89% 29.89 in 6.2 mi SE 1.2 mph - N/A   Mostly Cloudy
4:00 PM 79 °F - 72 °F 74% 29.89 in - East 6.9 mph - -  
4:00 PM 78.8 °F - 71.6 °F 78% 29.89 in 6.2 mi East 6.9 mph - N/A   Scattered Clouds
4:30 PM 78.8 °F - 71.6 °F 78% 29.89 in 6.2 mi NNE 11.5 mph - N/A   Mostly Cloudy
5:00 PM 77.0 °F - 73.4 °F 89% 29.89 in 6.2 mi NNE 15.0 mph - N/A   Mostly Cloudy
5:30 PM 75.2 °F - 73.4 °F 94% 29.89 in 6.2 mi North 17.3 mph - N/A   Mostly Cloudy
6:00 PM 76 °F - 73 °F 87% 29.92 in 12 mi North 16.1 mph - -   Partly Cloudy
6:00 PM 77.0 °F - 73.4 °F 89% 29.92 in 6.2 mi North 16.1 mph - N/A   Mostly Cloudy
6:30 PM 77.0 °F - 73.4 °F 89% 29.92 in 6.2 mi North 11.5 mph - N/A   Mostly Cloudy
7:00 PM 76 °F - 73 °F 88% 29.94 in - North 12.7 mph - -  
7:00 PM 77.0 °F - 73.4 °F 89% 29.92 in 6.2 mi North 12.7 mph - N/A   Mostly Cloudy
7:30 PM 77.0 °F - 73.4 °F 89% 29.95 in 6.2 mi North 13.8 mph - N/A   Mostly Cloudy
8:00 PM 77.0 °F - 73.4 °F 89% 29.95 in 6.2 mi North 12.7 mph - N/A   Mostly Cloudy
8:30 PM 77.0 °F - 73.4 °F 89% 29.95 in 6.2 mi North 10.4 mph - N/A   Mostly Cloudy
9:00 PM 76 °F - 74 °F 90% 29.98 in 11 mi North 9.2 mph - -   Partly Cloudy
9:00 PM 77.0 °F - 73.4 °F 89% 29.98 in 6.2 mi North 9.2 mph - N/A   Scattered Clouds
9:30 PM 77.0 °F - 73.4 °F 89% 29.98 in 6.2 mi NNW 10.4 mph - N/A   Scattered Clouds
10:00 PM 76 °F - 74 °F 91% 29.96 in - North 13.8 mph - -  
10:00 PM 75.2 °F - 73.4 °F 94% 29.95 in 6.2 mi North 13.8 mph - N/A   Scattered Clouds
10:30 PM 77.0 °F - 73.4 °F 89% 29.95 in 6.2 mi North 12.7 mph - N/A   Scattered Clouds
11:00 PM 77.0 °F - 73.4 °F 89% 29.95 in 6.2 mi NNW 9.2 mph - N/A   Scattered Clouds
11:30 PM 75.2 °F - 73.4 °F 94% 29.95 in 6.2 mi NW 11.5 mph - N/A   Scattered Clouds